Home   Weather   Fürth   Past weeks

Flag for Germany Past Weather in Fürth, Bavaria, Germany — Yesterday and Last 2 Weeks

Now
68 °F

Passing clouds.


Feels Like: 68 °F
Forecast: 55 / 73 °F
Wind: 5 mph from Southwest

Location: Nuernberg

Current Time: Sep 29, 2016 at 12:11:11 PM

Latest Report: Sep 29, 2016 at 11:20 AM


Visibility: N/A

Pressure: 30.21 "Hg

Humidity: 56%

Dew Point: 52 °F

Location of FürthLocation

Past Weather in Fürth — Graph

°F

Fürth Temperature Yesterday

Maximum temperature yesterday: 70 °F (at 1:20 PM)
Minimum temperature yesterday: 48 °F (at 4:50 AM)
Average temperature yesterday: 59 °F

High & Low Weather Summary for the Past Weeks

 TemperatureHumidityPressure
High86 °F (Sep 15, 2:20 PM)100% (Sep 17, 9:50 AM)30.39 "Hg (Sep 17, 9:50 AM)
Low41 °F (Sep 22, 5:50 AM)27% (Sep 14, 2:20 PM)29.83 "Hg (Sep 15, 3:50 PM)
Average59 °F79%30.11 "Hg
* Reported Sep 14 10:20 AM — Sep 29 10:50 AM, Fürth, Weather by CustomWeather, © 2016

Note: Actual official high and low records may vary slightly from our data, if they occured in-between our weather recording intervals... More about our weather records

Advertising

Fürth Weather History for the Previous 24 Hours

Scroll right to see more
 ConditionsComfort  
Time TempWeatherWind HumidityBarometerVisibility
10:50 AM
Thu, Sep 29
66 °FPassing clouds.6 mph64%30.24 "HgN/A
10:20 AM64 °FPassing clouds.6 mph68%30.24 "HgN/A
9:50 AM63 °FPassing clouds.5 mph68%30.24 "HgN/A
9:20 AM61 °FPassing clouds.5 mph72%30.24 "HgN/A
8:50 AM57 °FSunny.5 mph88%30.24 "Hg10 mi
8:20 AM54 °FSunny.5 mph94%30.27 "Hg10 mi
7:50 AM50 °FSunny.5 mph100%30.27 "Hg10 mi
7:20 AM50 °FSunny.2 mph100%30.27 "Hg10 mi
6:50 AM50 °FClear.2 mph100%30.27 "Hg10 mi
6:20 AM52 °FClear.3 mph94%30.27 "Hg10 mi
5:50 AM54 °FClear.2 mph88%30.27 "Hg10 mi
5:20 AM52 °FClear.3 mph94%30.27 "Hg10 mi
4:50 AM52 °FClear.5 mph94%30.27 "Hg10 mi
4:20 AM52 °FClear.6 mph94%30.30 "Hg10 mi
3:50 AM52 °FClear.6 mph94%30.30 "Hg10 mi
3:20 AM52 °FClear.6 mph94%30.30 "Hg10 mi
2:50 AM54 °FClear.2 mph88%30.30 "Hg10 mi
2:20 AM54 °FClear.3 mph88%30.30 "Hg10 mi
1:50 AM54 °FClear.3 mph88%30.33 "Hg10 mi
1:20 AM54 °FClear.3 mph94%30.33 "Hg10 mi
12:50 AM54 °FClear.3 mph88%30.33 "Hg10 mi
12:20 AM54 °FClear.5 mph88%30.33 "Hg10 mi
11:50 PM
Wed, Sep 28
57 °FClear.2 mph77%30.33 "Hg10 mi
11:20 PM59 °FClear.2 mph72%30.33 "Hg10 mi
10:50 PM59 °FClear.2 mph72%30.33 "Hg10 mi
10:20 PM61 °FClear.2 mph68%30.33 "Hg10 mi
9:50 PM61 °FPassing clouds.3 mph68%30.33 "HgN/A
9:20 PM61 °FPassing clouds.5 mph68%30.33 "HgN/A
8:50 PM61 °FClear.2 mph68%30.33 "Hg10 mi
8:20 PM63 °FPassing clouds.3 mph64%30.33 "HgN/A
7:50 PM63 °FPassing clouds.6 mph64%30.33 "HgN/A
7:20 PM64 °FClear.13 mph60%30.33 "Hg10 mi
6:50 PM66 °FSunny.9 mph52%30.33 "Hg10 mi
6:20 PM66 °FSunny.9 mph52%30.33 "Hg10 mi
5:50 PM68 °FSunny.13 mph46%30.30 "Hg10 mi
5:20 PM68 °FSunny.13 mph43%30.30 "Hg10 mi
4:50 PM70 °FSunny.17 mph43%30.30 "Hg10 mi
4:20 PM70 °FPartly sunny.15 mph40%30.30 "HgN/A
3:50 PM70 °FPartly sunny.17 mph50%30.30 "HgN/A
3:20 PM70 °FPartly sunny.18 mph50%30.33 "HgN/A
2:50 PM70 °FScattered clouds.15 mph53%30.33 "HgN/A
2:20 PM70 °FScattered clouds.17 mph57%30.33 "HgN/A
1:50 PM70 °FScattered clouds.14 mph57%30.33 "HgN/A
1:20 PM70 °FScattered clouds.13 mph57%30.36 "HgN/A
12:50 PM68 °FScattered clouds.10 mph60%30.36 "HgN/A
12:20 PM66 °FScattered clouds.10 mph68%30.36 "HgN/A
Weather by CustomWeather, © 2016

See weather overviewHow to use our weather pages